Regional Weather Roundup
Issued by NWS

Home | Current Version | Previous Version | Text Only | Print | Product List | Glossary On
Versions: 1 2 3 4 5 6 7 8 9 10 11 12 13 14 15 16 17 18 19 20 21 22 23 24 25 26 27 28 29 30 31 32 33 34 35 36 37 38 39 40 41 42 43 44 45 46 47 48 49 50
000
ASUS43 KMPX 310210
RWRMN
WEATHER ROUNDUP FOR MINNESOTA
NATIONAL WEATHER SERVICE TWIN CITIES/CHANHASSEN MN
900 PM CDT THU OCT 30 2014


NOTE: "FAIR" INDICATES FEW OR NO CLOUDS BELOW 12,000 FEET WITH NO
SIGNIFICANT WEATHER AND/OR OBSTRUCTIONS TO VISIBILITY. N/A MEANS
CURRENT SKY AND/OR WEATHER CONDITIONS ARE NOT AVAILABLE.

MNZ060>063-068>070-310300-
   Twin Cities Metro

CITY           SKY/WX    TMP DP  RH WIND       PRES   REMARKS
TWIN CITIES    CLOUDY    41  23  48 NW17      30.25R
ST PAUL        CLOUDY    41  23  48 NW18G24   30.26R
CRYSTAL        CLOUDY    41  23  48 N25G37    30.26R
LAKEVILLE      CLOUDY    39  27  60 NW20G29   30.24R
EDEN PRAIRIE   CLOUDY    41  24  51 N14G24    30.25R
SOUTH ST PAUL  CLOUDY    42  23  46 NW15G25   30.24R
LAKE ELMO      CLOUDY    41  30  65 N15       30.24R
$$
MNZ001>005-007-008-013>017-022>024-027-028-310300-
   Northwest Minnesota

CITY           SKY/WX    TMP DP  RH WIND       PRES   REMARKS
BEMIDJI        MOCLDY    29  16  57 N10       30.40R WCI  20
HALLOCK        CLEAR     28  19  69 N12       30.54R WCI  18
ROSEAU         CLEAR     27  19  74 N7        30.49R WCI  19
WARROAD        CLEAR     28  19  69 N9        30.48R WCI  20
THIEF RVR FALL CLEAR     28  19  69 N12       30.48R WCI  18
CROOKSTON      CLEAR     28  19  69 N14       30.52R WCI  17
FOSSTON        CLEAR     25  19  80 N13       30.45R WCI  13
DETROIT LAKES  CLEAR     30  23  74 N12G22    30.43R WCI  21
MOORHEAD       CLEAR     30  25  80 N13       30.49R WCI  20
PARK RAPIDS    CLEAR     30  17  58 N18       30.38R WCI  18
MAHNOMEN       FAIR      28  22  81 N12       30.44R WCI  17
$$
MNZ006-009>011-018-025>026-310300-
   North Central Minnesota

CITY           SKY/WX    TMP DP  RH WIND       PRES   REMARKS
BAUDETTE       MOCLDY    31  18  58 N20G25    30.43R WCI  19
FLAG ISLAND    PTCLDY    30  19  64 N28       30.47R WCI  16
INTL FALLS     CLOUDY    29  19  66 N18G25    30.38R WCI  16
WASKISH        CLOUDY    30  18  59 N9        30.42R WCI  22
BIG FORK       CLEAR     28  18  64 N9G22     30.37R WCI  20
LONGVILLE      CLEAR     30  16  55 N15G23    30.36R WCI  19
GRAND RAPIDS   PTCLDY    28  16  59 N20G29    30.33R WCI  15
CRANE LAKE     PTCLDY    27  21  80 N10G28    30.36R WCI  17
ORR            PTCLDY    27  18  69 NW7       30.31R WCI  19
COOK           PTCLDY    27  21  80 NW15G26   30.32R WCI  15
WALKER         MOCLDY    30  15  54 N5G18     30.39R WCI  25
$$
MNZ012-019>021-037-310300-
   Northeast Minnesota

CITY           SKY/WX    TMP DP  RH WIND       PRES   REMARKS
DULUTH         MOCLDY    30  19  63 N22G35    30.23R WCI  17
ELY            LGT SNOW  27  25  93 NW14G22   30.26R WCI  15
HIBBING        MOCLDY    29  18  63 N18G26    30.31R WCI  16
EVELETH        PTCLDY    30  21  69 N15G22    30.30R WCI  19
DULUTH HARBOR  PTCLDY    36  21  55 NW30G36   30.26R
TWO HARBORS    PTCLDY    34  23  64 NW12G18   30.20S WCI  25
SILVER BAY     LGT SNOW  30  27  86 NW9G17    30.17S WCI  22
GRAND MARAIS     N/A     32  25  75 N12G29    30.16R WCI  23
G MARAIS ARPRT CLOUDY    27  19  74 N20G33    30.12R WCI  13
$$
MNZ029>031-032-039>041-046>048-054>057-064-310300-
   West Central Minnesota

CITY           SKY/WX    TMP DP  RH WIND       PRES   REMARKS
FERGUS FALLS   CLEAR     30  18  59 N10G18    30.45R WCI  21
WHEATON        PTCLDY    28  21  74 NW9       30.47S WCI  20
MORRIS         CLEAR     30  23  74 N14G22    30.41R WCI  20
ALEXANDRIA     PTCLDY    33  19  56 N17       30.38R WCI  22
ELBOW LAKE     FAIR      31  23  71 N12G20    30.42R WCI  22
WADENA         MOCLDY    28  19  69 N7        30.38R WCI  21
GLENWOOD       CLEAR     32  19  59 N20G26    30.37S WCI  20
APPLETON       PTCLDY    34  25  69 N16       30.42R WCI  23
BENSON         PTCLDY    34  21  60 N12G20    30.40R WCI  25
ORTONVILLE     PTCLDY    32  21  64 N14G23    30.44R WCI  22
MADISON        MOCLDY    37  25  60 N21       30.43R
WILLMAR        MOCLDY    36  21  55 N15G22    30.38R
$$
MNZ033>034-036-042>043-049>051-058-059-310300-
   Central Minnesota

CITY           SKY/WX    TMP DP  RH WIND       PRES   REMARKS
ST CLOUD       CLOUDY    37  18  46 N13       30.32R
SAUK CENTRE    FAIR      32  19  60 NW14G20   30.36R WCI  22
PAYNESVILLE    CLEAR     30  19  64 W12G21    30.36R WCI  20
AITKIN         CLEAR     34  14  44 N18G24    30.32R WCI  23
PINE RIVER     CLEAR     30  16  55 N16G25    30.38R WCI  19
BRAINERD       PTCLDY    31  13  47 N20G29    30.35R WCI  19
STAPLES        MOCLDY    30  18  59 N12G20    30.37R WCI  21
LONG PRAIRIE   FAIR      30  19  64 NW10G16   30.36R WCI  21
LITTLE FALLS   PTCLDY    34  14  44 N10G20    30.34R WCI  26
LITCHFIELD     CLOUDY    37  25  60 N23G32    30.34R
BUFFALO        CLOUDY    38  21  50 NW20G28   30.31R
MAPLE LAKE     PTCLDY    37  23  56 NW20G29   30.32R
$$
MNZ037-044-045-052-053-310300-
   East Central Minnesota

CITY           SKY/WX    TMP DP  RH WIND       PRES   REMARKS
PRINCETON      MOCLDY    37  18  44 NW17G25   30.30R
MORA           PTCLDY    34  16  47 N17G28    30.31R WCI  23
CAMBRIDGE      PTCLDY    37  21  52 NW14G22   30.28R
RUSH CITY      PTCLDY    35  18  49 N20G30    30.28R WCI  24
MOOSE LAKE     PTCLDY    32  14  47 N17G30    30.27R WCI  21
HINCKLEY       FAIR      34  18  51 N18G29    30.28R WCI  23
CLOQUET        MOCLDY    30  16  55 N17G29    30.27R WCI  18
MCGREGOR       CLEAR     32  18  55 N20G32    30.32R WCI  20
$$
MNZ071>073-080-081-089-090-097-098-310300-
   Southwest Minnesota

CITY           SKY/WX    TMP DP  RH WIND       PRES   REMARKS
MONTEVIDEO     CLOUDY    36  27  69 N22G29    30.40R
GRANITE FALLS  CLOUDY    35  26  69 NW20G25   30.40R WCI  24
CANBY          CLOUDY    34  24  68 NW16G28   30.44R WCI  23
MARSHALL       CLOUDY    34  19  55 N24G39    30.39R WCI  21
REDWOOD FALLS  CLOUDY    38  26  62 N14G29    30.35R
OLIVIA         CLOUDY    36  27  69 N24G32    30.35R
PIPESTONE      CLOUDY    34  25  69 N18G29    30.37R WCI  23
WINDOM         CLOUDY    36  28  75 NW26G32   30.33R
WORTHINGTON    CLOUDY    34  27  75 N28G38    30.35R WCI  20
JACKSON        CLOUDY    37  30  75 NW24G33   30.30R
TRACY          CLOUDY    35  27  73 N21G30    30.38R WCI  24
SLAYTON        CLOUDY    32  26  77 N25G32    30.37R WCI  19
$$
MNZ065>067-074>077-082>085-091>093-310300-
   South Central Minnesota

CITY           SKY/WX    TMP DP  RH WIND       PRES   REMARKS
MANKATO        CLOUDY    41  25  52 NW18G24   30.27R
NEW ULM        CLEAR     39  27  60 NW26G32   30.29S
ST JAMES       CLOUDY    41  28  60 NW17G24   30.32R
FAIRMONT       CLOUDY    41  28  60 NW26G32   30.28R
GLENCOE        CLOUDY    39  25  57 N21G29    30.30R
FARIBAULT      CLOUDY    43  27  52 N14G24    30.25R
OWATONNA       PTCLDY    43  30  61 NW20G26   30.23R
WASECA         CLOUDY    41  28  60 NW18G25   30.26R
ALBERT LEA     CLOUDY    45  34  65 N16G25    30.21R
$$
MNZ078>079-086>088-094>096-310300-
   Southeast Minnesota

CITY           SKY/WX    TMP DP  RH WIND       PRES   REMARKS
ROCHESTER      CLOUDY    42  31  64 N22G28    30.19R
RED WING         N/A     43  27  52 N14G24    30.21R
STANTON        CLOUDY    43  29  58 NW17G24   30.22R
DODGE CENTER   CLOUDY    43  34  70 N17G23    30.20R
WINONA         CLOUDY    45  32  61 N10G21    30.17R
AUSTIN         CLOUDY    43  34  70 N17G24    30.19R
PRESTON        CLOUDY    42  35  75 N17G25    30.16R
$$
ABBREVIATIONS USED IN REMARKS
   TC - TEMPERATURES IN CELSIUS
  WCI - WIND CHILL INDEX
   HX - HEAT INDEX
  VSB - VISIBILITY
$$



USA.gov is the U.S. government's official web portal to all federal, state and local government web resources and services.